Location: Asheville, NC
(35.6000°N, 82.5500°W)
Time: 04:21:45
(UTC-05:00)

Vanguard 2 Rocket - Pass Details

Date: 12 December 2017
Orbit: 556 x 3326 km, 32.9° (Epoch: 17 January)

Event Time Altitude Azimuth Distance (km) Brightness Sun altitude
Exits shadow 02:43:31 24° 156° (SSE) 4,345 10.2 -57.3°
Drops below altitude 10° 02:47:56 10° 146° (SE) 5,061 10.8 -56.5°
Sets 02:51:26 0° 140° (SE) 5,746 11.2 -55.8°
